Погода в Бордо

Франция     44°50′40″N   0°34′41″E
темп.,
°C
ветер,
м/с
пор.,
м/с
влажн.,
%
обл.,
%
осадки,
мм/ч
давл.,
гПа
погр.,
м
30 ноября, вт
вт3001:00+1вюв22920 0.0 102434
04:00+1юв22930 0.0 102541
07:000юв11920 0.0 102623
10:00+3ю12815 0.0 1028102
13:00+8ююз1260100 0.0 1027352
16:00+9ююз1268100 0.0 102546
19:00+6ююз228867 0.0 102535
22:00+6ююз379639 0.0 1023133
1 декабря, ср
ср101:00+8ююз41097100 0.0 1020291
04:00+10юз51391100 0.0 1017769
07:00+12зюз71493100 0.6 10141058
10:00+12з81492100 7.4 10121019
13:00+12зсз5980100 8.3 1012949
16:00+11зсз610785 0.4 10121017
19:00+9зсз410805 0.7 1011519
22:00+7з38875 0.1 1010261
2 декабря, чт
чт201:00+7з389397 1.3 1008294
04:00+6сз25925 1.3 1008205
07:00+5зсз25905 1.3 1010109
10:00+6ссз4118637 0.1 1013806
13:00+8ссз69665 0.2 10141288
16:00+8сз58573 0.0 10141029
19:00+5з3674100 0.0 1015233
22:00+6сз398633 0.3 1016422
3 декабря, пт
пт301:00+3ссз48916 0.3 1019359
04:00+2ссз22885 0.0 102067
07:00+1ю228793 0.0 102140
10:00+3ю3580100 0.4 1020176
13:00+4ю51391100 2.9 1017441
16:00+10з51496100 0.5 1014667
19:00+12з61392100 0.6 1015745
22:00+12з71487100 0.4 1016926
4 декабря, сб
сб401:00+12з51190100 0.9 1015634
04:00+12зюз61496100 2.4 10131017
07:00+12з51098100 5.4 1012630
10:00+11сз599122 3.6 1015577
13:00+12сз51072100 3.7 10171336
16:00+11з6127584 0.6 10171256
19:00+10зсз7137799 0.9 10191121
22:00+9сз6137680 1.1 10201145